TimeCST,TemperatureF,Dew PointF,Humidity,Sea Level PressureIn,VisibilityMPH,Wind Direction,Wind SpeedMPH,Gust SpeedMPH,PrecipitationIn,Events,Conditions,WindDirDegrees,DateUTC
12:15 AM,17.6,15.8,93,29.67,10.0,Calm,Calm,-,N/A,,Overcast,0,2012-12-18 06:15:00
12:36 AM,17.6,15.8,93,29.67,10.0,Calm,Calm,-,N/A,,Overcast,0,2012-12-18 06:36:00
12:56 AM,19.4,15.8,86,29.67,10.0,Calm,Calm,-,N/A,,Unknown,0,2012-12-18 06:56:00
1:15 AM,19.4,15.8,86,29.66,10.0,Calm,Calm,-,N/A,,Unknown,0,2012-12-18 07:15:00
1:36 AM,19.4,15.8,86,29.66,10.0,Calm,Calm,-,N/A,,Unknown,0,2012-12-18 07:36:00
1:56 AM,19.4,15.8,86,29.67,10.0,Calm,Calm,-,N/A,,Unknown,0,2012-12-18 07:56:00
2:15 AM,19.4,15.8,86,29.67,10.0,Calm,Calm,-,N/A,,Unknown,0,2012-12-18 08:15:00
2:36 AM,19.4,15.8,86,29.67,10.0,Calm,Calm,-,N/A,,Unknown,0,2012-12-18 08:36:00
2:56 AM,19.4,15.8,86,29.67,10.0,SSW,3.5,-,N/A,,Unknown,210,2012-12-18 08:56:00
3:15 AM,19.4,15.8,86,29.67,10.0,Calm,Calm,-,N/A,,Overcast,0,2012-12-18 09:15:00
3:36 AM,19.4,15.8,86,29.66,10.0,Calm,Calm,-,N/A,,Unknown,0,2012-12-18 09:36:00
3:56 AM,19.4,15.8,86,29.66,10.0,Calm,Calm,-,N/A,,Unknown,0,2012-12-18 09:56:00
4:15 AM,19.4,15.8,86,29.65,10.0,Calm,Calm,-,N/A,,Unknown,0,2012-12-18 10:15:00
4:36 AM,19.4,15.8,86,29.66,10.0,Calm,Calm,-,N/A,,Unknown,0,2012-12-18 10:36:00
4:56 AM,19.4,15.8,86,29.66,7.0,Calm,Calm,-,N/A,,Unknown,0,2012-12-18 10:56:00
5:16 AM,19.4,15.8,86,29.66,10.0,Calm,Calm,-,N/A,,Unknown,0,2012-12-18 11:16:00
5:36 AM,19.4,15.8,86,29.66,10.0,Calm,Calm,-,N/A,,Unknown,0,2012-12-18 11:36:00
5:56 AM,19.4,17.6,93,29.65,7.0,Calm,Calm,-,N/A,,Unknown,0,2012-12-18 11:56:00
6:16 AM,19.4,17.6,93,29.65,10.0,East,3.5,-,N/A,,Unknown,80,2012-12-18 12:16:00
6:36 AM,19.4,17.6,93,29.65,7.0,East,3.5,-,N/A,,Unknown,90,2012-12-18 12:36:00
6:56 AM,19.4,17.6,93,29.65,10.0,Calm,Calm,-,N/A,,Unknown,0,2012-12-18 12:56:00
7:16 AM,19.4,17.6,93,29.66,10.0,Calm,Calm,-,N/A,,Unknown,0,2012-12-18 13:16:00
7:36 AM,19.4,17.6,93,29.66,10.0,Calm,Calm,-,N/A,,Unknown,0,2012-12-18 13:36:00
7:56 AM,19.4,17.6,93,29.66,10.0,ESE,3.5,-,N/A,,Unknown,120,2012-12-18 13:56:00
8:16 AM,19.4,17.6,93,29.67,10.0,Calm,Calm,-,N/A,,Unknown,0,2012-12-18 14:16:00
8:36 AM,19.4,17.6,93,29.67,10.0,Calm,Calm,-,N/A,,Overcast,0,2012-12-18 14:36:00
8:56 AM,19.4,17.6,93,29.67,10.0,Calm,Calm,-,N/A,,Unknown,0,2012-12-18 14:56:00
9:16 AM,19.4,17.6,93,29.67,10.0,East,3.5,-,N/A,,Unknown,100,2012-12-18 15:16:00
9:36 AM,19.4,17.6,93,29.67,10.0,Calm,Calm,-,N/A,,Unknown,0,2012-12-18 15:36:00
9:56 AM,19.4,17.6,93,29.67,10.0,Calm,Calm,-,N/A,,Unknown,0,2012-12-18 15:56:00
10:16 AM,19.4,17.6,93,29.67,10.0,East,3.5,-,N/A,,Unknown,90,2012-12-18 16:16:00
10:36 AM,19.4,17.6,93,29.68,10.0,Calm,Calm,-,N/A,,Unknown,0,2012-12-18 16:36:00
10:56 AM,21.2,17.6,86,29.67,10.0,Calm,Calm,-,N/A,,Unknown,0,2012-12-18 16:56:00
11:16 AM,21.2,17.6,86,29.67,10.0,Calm,Calm,-,N/A,Snow,Light Snow,0,2012-12-18 17:16:00
11:36 AM,21.2,19.4,93,29.66,10.0,Calm,Calm,-,N/A,Snow,Light Snow,0,2012-12-18 17:36:00
11:56 AM,21.2,19.4,93,29.66,10.0,Calm,Calm,-,N/A,,Overcast,0,2012-12-18 17:56:00
12:16 PM,21.2,19.4,93,29.66,10.0,Calm,Calm,-,N/A,,Overcast,0,2012-12-18 18:16:00
12:36 PM,21.2,19.4,93,29.65,10.0,Calm,Calm,-,N/A,,Overcast,0,2012-12-18 18:36:00
12:56 PM,21.2,19.4,93,29.65,10.0,Calm,Calm,-,N/A,,Overcast,0,2012-12-18 18:56:00
1:16 PM,23.0,19.4,86,29.65,10.0,Calm,Calm,-,N/A,,Overcast,0,2012-12-18 19:16:00
1:36 PM,23.0,19.4,86,29.65,10.0,NNW,3.5,-,N/A,,Overcast,330,2012-12-18 19:36:00
1:56 PM,24.8,19.4,80,29.66,10.0,Calm,Calm,-,N/A,,Overcast,0,2012-12-18 19:56:00
2:16 PM,24.8,19.4,80,29.66,10.0,Calm,Calm,-,N/A,,Overcast,0,2012-12-18 20:16:00
2:36 PM,24.8,17.6,74,29.66,10.0,Calm,Calm,-,N/A,,Overcast,0,2012-12-18 20:36:00
2:56 PM,24.8,19.4,80,29.67,10.0,Calm,Calm,-,N/A,,Overcast,0,2012-12-18 20:56:00
3:16 PM,24.8,19.4,80,29.67,10.0,Calm,Calm,-,N/A,,Mostly Cloudy,0,2012-12-18 21:16:00
3:36 PM,24.8,19.4,80,29.67,10.0,Calm,Calm,-,N/A,,Scattered Clouds,0,2012-12-18 21:36:00
3:56 PM,24.8,19.4,80,29.68,10.0,Calm,Calm,-,N/A,,Scattered Clouds,0,2012-12-18 21:56:00
4:16 PM,24.8,19.4,80,29.68,10.0,Calm,Calm,-,N/A,,Mostly Cloudy,0,2012-12-18 22:16:00
4:36 PM,23.0,19.4,86,29.69,10.0,Calm,Calm,-,N/A,,Mostly Cloudy,0,2012-12-18 22:36:00
4:56 PM,21.2,17.6,86,29.68,10.0,Calm,Calm,-,N/A,,Scattered Clouds,0,2012-12-18 22:56:00
5:15 PM,21.2,17.6,86,29.68,10.0,East,3.5,-,N/A,,Clear,80,2012-12-18 23:15:00
5:36 PM,21.2,17.6,86,29.69,10.0,East,3.5,-,N/A,,Scattered Clouds,90,2012-12-18 23:36:00
5:56 PM,19.4,15.8,86,29.69,10.0,Calm,Calm,-,N/A,,Scattered Clouds,0,2012-12-18 23:56:00
6:16 PM,17.6,15.8,93,29.70,10.0,Calm,Calm,-,N/A,,Scattered Clouds,0,2012-12-19 00:16:00
6:36 PM,17.6,12.2,79,29.72,10.0,Calm,Calm,-,N/A,,Overcast,0,2012-12-19 00:36:00
6:56 PM,17.6,15.8,93,29.72,10.0,Calm,Calm,-,N/A,,Overcast,0,2012-12-19 00:56:00
7:16 PM,19.4,15.8,86,29.72,10.0,Calm,Calm,-,N/A,,Overcast,0,2012-12-19 01:16:00
7:36 PM,19.4,15.8,86,29.72,10.0,Calm,Calm,-,N/A,,Overcast,0,2012-12-19 01:36:00
7:55 PM,17.6,15.8,93,29.73,10.0,Calm,Calm,-,N/A,,Overcast,0,2012-12-19 01:55:00
8:16 PM,19.4,15.8,86,29.72,10.0,Calm,Calm,-,N/A,,Overcast,0,2012-12-19 02:16:00
8:36 PM,19.4,15.8,86,29.74,10.0,Calm,Calm,-,N/A,,Overcast,0,2012-12-19 02:36:00
8:55 PM,19.4,15.8,86,29.74,10.0,Calm,Calm,-,N/A,,Overcast,0,2012-12-19 02:55:00
9:16 PM,19.4,15.8,86,29.74,10.0,Calm,Calm,-,N/A,,Overcast,0,2012-12-19 03:16:00
9:36 PM,19.4,15.8,86,29.74,10.0,Calm,Calm,-,N/A,,Overcast,0,2012-12-19 03:36:00
9:56 PM,19.4,15.8,86,29.75,7.0,Calm,Calm,-,N/A,,Overcast,0,2012-12-19 03:56:00
10:16 PM,19.4,15.8,86,29.74,7.0,Calm,Calm,-,N/A,,Overcast,0,2012-12-19 04:16:00
10:36 PM,19.4,15.8,86,29.74,7.0,Calm,Calm,-,N/A,,Overcast,0,2012-12-19 04:36:00
10:56 PM,19.4,15.8,86,29.75,10.0,Calm,Calm,-,N/A,,Overcast,0,2012-12-19 04:56:00
11:16 PM,19.4,17.6,93,29.75,10.0,Calm,Calm,-,N/A,,Overcast,0,2012-12-19 05:16:00
11:36 PM,19.4,15.8,86,29.75,10.0,ESE,3.5,-,N/A,,Overcast,120,2012-12-19 05:36:00
11:56 PM,19.4,17.6,93,29.75,10.0,Calm,Calm,-,N/A,,Overcast,0,2012-12-19 05:56:00